Time,TemperatureF,DewpointF,PressureIn,WindDirection,WindDirectionDegrees,WindSpeedMPH,WindSpeedGustMPH,Humidity,HourlyPrecipIn,Conditions,Clouds,dailyrainin,SoftwareType,DateUTC
2013-09-09 00:13:00,79.0,54.6,29.76,SSE,157,6.3,-999.0,43,-99.99,,,0.00,Acu-Link.com,2013-09-09 06:13:00,
2013-09-09 00:29:00,78.4,54.7,29.76,SSE,157,4.2,-999.0,44,-99.99,,,0.00,Acu-Link.com,2013-09-09 06:29:00,
2013-09-09 00:45:00,77.9,54.2,29.74,South,180,8.9,-999.0,44,-99.99,,,0.00,Acu-Link.com,2013-09-09 06:45:00,
2013-09-09 01:00:00,77.4,54.4,29.74,SSE,157,4.2,-999.0,45,-99.99,,,0.00,Acu-Link.com,2013-09-09 07:00:00,
2013-09-09 01:15:00,76.6,54.3,29.75,SE,135,4.2,-999.0,46,-99.99,,,0.00,Acu-Link.com,2013-09-09 07:15:00,
2013-09-09 01:30:00,75.9,54.2,29.75,East,90,5.8,-999.0,47,-99.99,,,0.00,Acu-Link.com,2013-09-09 07:30:00,
2013-09-09 01:45:00,75.9,54.2,29.75,SSE,157,6.8,-999.0,47,-99.99,,,0.00,Acu-Link.com,2013-09-09 07:45:00,
2013-09-09 02:00:00,75.6,53.9,29.74,SSE,157,5.8,-999.0,47,-99.99,,,0.00,Acu-Link.com,2013-09-09 08:00:00,
2013-09-09 02:16:00,75.4,53.8,29.74,ESE,112,4.7,-999.0,47,-99.99,,,0.00,Acu-Link.com,2013-09-09 08:16:00,
2013-09-09 02:31:00,75.0,54.0,29.74,East,90,4.2,-999.0,48,-99.99,,,0.00,Acu-Link.com,2013-09-09 08:31:00,
2013-09-09 02:46:00,74.5,54.6,29.74,ESE,112,5.8,-999.0,50,-99.99,,,0.00,Acu-Link.com,2013-09-09 08:46:00,
2013-09-09 03:01:00,74.7,54.8,29.74,SE,135,6.3,-999.0,50,-99.99,,,0.00,Acu-Link.com,2013-09-09 09:01:00,
2013-09-09 03:16:00,74.1,54.8,29.73,SE,135,4.2,-999.0,51,-99.99,,,0.00,Acu-Link.com,2013-09-09 09:16:00,
2013-09-09 03:32:00,73.2,55.0,29.74,SE,135,4.7,-999.0,53,-99.99,,,0.00,Acu-Link.com,2013-09-09 09:32:00,
2013-09-09 03:47:00,72.7,55.1,29.73,SE,135,4.2,-999.0,54,-99.99,,,0.00,Acu-Link.com,2013-09-09 09:47:00,
2013-09-09 04:02:00,72.5,55.4,29.73,SE,135,4.2,-999.0,55,-99.99,,,0.00,Acu-Link.com,2013-09-09 10:02:00,
2013-09-09 04:17:00,72.1,55.5,29.73,ESE,112,3.2,-999.0,56,-99.99,,,0.00,Acu-Link.com,2013-09-09 10:17:00,
2013-09-09 04:32:00,72.0,55.9,29.72,SE,135,6.3,-999.0,57,-99.99,,,0.00,Acu-Link.com,2013-09-09 10:32:00,
2013-09-09 04:48:00,72.1,56.0,29.73,SE,135,6.8,-999.0,57,-99.99,,,0.00,Acu-Link.com,2013-09-09 10:48:00,
2013-09-09 05:03:00,72.0,56.4,29.73,SE,135,4.2,-999.0,58,-99.99,,,0.00,Acu-Link.com,2013-09-09 11:03:00,
2013-09-09 05:18:00,71.6,56.5,29.74,ESE,112,3.2,-999.0,59,-99.99,,,0.00,Acu-Link.com,2013-09-09 11:18:00,
2013-09-09 05:33:00,71.4,56.8,29.73,SE,135,5.8,-999.0,60,-99.99,,,0.00,Acu-Link.com,2013-09-09 11:33:00,
2013-09-09 05:49:00,71.2,56.6,29.74,SE,135,5.3,-999.0,60,-99.99,,,0.00,Acu-Link.com,2013-09-09 11:49:00,
2013-09-09 06:04:00,71.2,56.6,29.73,ESE,112,4.2,-999.0,60,-99.99,,,0.00,Acu-Link.com,2013-09-09 12:04:00,
2013-09-09 06:19:00,71.2,57.1,29.73,ESE,112,2.7,-999.0,61,-99.99,,,0.00,Acu-Link.com,2013-09-09 12:19:00,
2013-09-09 06:34:00,71.1,57.0,29.73,ESE,112,3.2,-999.0,61,-99.99,,,0.00,Acu-Link.com,2013-09-09 12:34:00,
2013-09-09 06:49:00,70.9,57.2,29.74,ESE,112,4.2,-999.0,62,-99.99,,,0.00,Acu-Link.com,2013-09-09 12:49:00,
2013-09-09 07:05:00,71.8,57.6,29.75,East,90,3.7,-999.0,61,-99.99,,,0.00,Acu-Link.com,2013-09-09 13:05:00,
2013-09-09 07:20:00,72.7,58.0,29.77,ESE,112,3.2,-999.0,60,-99.99,,,0.00,Acu-Link.com,2013-09-09 13:20:00,
2013-09-09 07:35:00,72.5,57.8,29.77,SE,135,3.7,-999.0,60,-99.99,,,0.00,Acu-Link.com,2013-09-09 13:35:00,
2013-09-09 07:50:00,72.1,57.9,29.77,ESE,112,4.2,-999.0,61,-99.99,,,0.00,Acu-Link.com,2013-09-09 13:50:00,
2013-09-09 08:05:00,72.7,58.0,29.76,ESE,112,4.2,-999.0,60,-99.99,,,0.00,Acu-Link.com,2013-09-09 14:05:00,
2013-09-09 08:21:00,74.8,58.5,29.77,ESE,112,3.7,-999.0,57,-99.99,,,0.00,Acu-Link.com,2013-09-09 14:21:00,
2013-09-09 08:36:00,76.8,58.9,29.78,SSE,157,3.2,-999.0,54,-99.99,,,0.00,Acu-Link.com,2013-09-09 14:36:00,
2013-09-09 08:51:00,78.4,59.8,29.76,ESE,112,10.4,-999.0,53,-99.99,,,0.00,Acu-Link.com,2013-09-09 14:51:00,
2013-09-09 09:07:00,78.8,59.7,29.77,SSW,202,5.8,-999.0,52,-99.99,,,0.00,Acu-Link.com,2013-09-09 15:07:00,
2013-09-09 09:22:00,79.0,59.3,29.77,SSE,157,11.9,-999.0,51,-99.99,,,0.00,Acu-Link.com,2013-09-09 15:22:00,
2013-09-09 09:37:00,79.9,59.6,29.78,ESE,112,7.3,-999.0,50,-99.99,,,0.00,Acu-Link.com,2013-09-09 15:37:00,
2013-09-09 09:52:00,80.4,59.5,29.78,SSE,157,7.8,-999.0,49,-99.99,,,0.00,Acu-Link.com,2013-09-09 15:52:00,
2013-09-09 10:07:00,81.3,59.7,29.78,SSE,157,7.3,-999.0,48,-99.99,,,0.00,Acu-Link.com,2013-09-09 16:07:00,
2013-09-09 10:22:00,82.0,59.2,29.76,SE,135,9.9,-999.0,46,-99.99,,,0.00,Acu-Link.com,2013-09-09 16:22:00,
2013-09-09 10:38:00,83.5,59.3,29.76,ESE,112,7.3,-999.0,44,-99.99,,,0.00,Acu-Link.com,2013-09-09 16:38:00,
2013-09-09 11:01:00,83.5,59.3,29.75,ENE,67,7.8,-999.0,44,-99.99,,,0.00,Acu-Link.com,2013-09-09 17:01:00,
2013-09-09 11:16:00,84.4,58.8,29.75,SSE,157,8.9,-999.0,42,-99.99,,,0.00,Acu-Link.com,2013-09-09 17:16:00,
2013-09-09 11:34:00,85.3,58.2,29.75,SSE,157,6.8,-999.0,40,-99.99,,,0.00,Acu-Link.com,2013-09-09 17:34:00,
2013-09-09 11:49:00,86.0,58.8,29.75,SSE,157,5.8,-999.0,40,-99.99,,,0.00,Acu-Link.com,2013-09-09 17:49:00,
2013-09-09 12:04:00,88.2,59.3,29.74,SSE,157,7.3,-999.0,38,-99.99,,,0.00,Acu-Link.com,2013-09-09 18:04:00,
2013-09-09 12:22:00,87.3,58.6,29.74,SE,135,4.7,-999.0,38,-99.99,,,0.00,Acu-Link.com,2013-09-09 18:22:00,
2013-09-09 12:37:00,87.1,57.6,29.73,SSE,157,5.8,-999.0,37,-99.99,,,0.00,Acu-Link.com,2013-09-09 18:37:00,
2013-09-09 12:53:00,88.9,58.5,29.73,South,180,3.2,-999.0,36,-99.99,,,0.00,Acu-Link.com,2013-09-09 18:53:00,
2013-09-09 13:15:00,88.9,58.5,29.70,SSE,157,2.7,-999.0,36,-99.99,,,0.00,Acu-Link.com,2013-09-09 19:15:00,
2013-09-09 14:05:00,86.9,58.2,29.70,SW,225,10.4,-999.0,38,-99.99,,,0.00,Acu-Link.com,2013-09-09 20:05:00,
2013-09-09 14:20:00,82.9,58.7,29.70,SSW,202,11.4,-999.0,44,-99.99,,,0.00,Acu-Link.com,2013-09-09 20:20:00,
2013-09-09 14:38:00,81.0,60.0,29.70,South,180,9.4,-999.0,49,-99.99,,,0.00,Acu-Link.com,2013-09-09 20:38:00,
2013-09-09 14:57:00,79.9,59.0,29.69,SSW,202,8.3,-999.0,49,-99.99,,,0.00,Acu-Link.com,2013-09-09 20:57:00,
2013-09-09 15:12:00,77.7,60.7,29.70,South,180,6.8,-999.0,56,-99.99,,,0.00,Acu-Link.com,2013-09-09 21:12:00,
2013-09-09 15:42:00,78.4,59.3,29.69,South,180,8.9,-999.0,52,-99.99,,,0.00,Acu-Link.com,2013-09-09 21:42:00,
2013-09-09 15:57:00,77.2,63.2,29.69,West,270,2.7,-999.0,62,-99.99,,,0.01,Acu-Link.com,2013-09-09 21:57:00,
2013-09-09 16:15:00,76.1,63.0,29.68,SSW,202,3.2,-999.0,64,-99.99,,,0.01,Acu-Link.com,2013-09-09 22:15:00,
2013-09-09 16:33:00,79.0,64.8,29.69,South,180,4.7,-999.0,62,-99.99,,,0.01,Acu-Link.com,2013-09-09 22:33:00,
2013-09-09 16:49:00,79.2,62.1,29.68,South,180,6.8,-999.0,56,-99.99,,,0.01,Acu-Link.com,2013-09-09 22:49:00,
2013-09-09 17:04:00,78.8,60.2,29.68,South,180,13.0,-999.0,53,-99.99,,,0.01,Acu-Link.com,2013-09-09 23:04:00,
2013-09-09 17:19:00,78.1,61.6,29.68,SSW,202,10.4,-999.0,57,-99.99,,,0.02,Acu-Link.com,2013-09-09 23:19:00,
2013-09-09 17:34:00,76.8,63.7,29.68,SSE,157,9.4,-999.0,64,-99.99,,,0.02,Acu-Link.com,2013-09-09 23:34:00,
2013-09-09 17:49:00,76.6,63.9,29.69,SSE,157,6.8,-999.0,65,-99.99,,,0.02,Acu-Link.com,2013-09-09 23:49:00,
2013-09-09 18:04:00,76.8,63.7,29.69,SSE,157,6.8,-999.0,64,-99.99,,,0.02,Acu-Link.com,2013-09-10 00:04:00,
2013-09-09 18:20:00,76.8,62.8,29.68,SSE,157,10.9,-999.0,62,-99.99,,,0.02,Acu-Link.com,2013-09-10 00:20:00,
2013-09-09 18:36:00,76.3,61.8,29.67,ESE,112,7.3,-999.0,61,-99.99,,,0.02,Acu-Link.com,2013-09-10 00:36:00,
2013-09-09 18:52:00,75.9,61.5,29.68,SSE,157,7.8,-999.0,61,-99.99,,,0.02,Acu-Link.com,2013-09-10 00:52:00,
2013-09-09 19:07:00,75.6,61.6,29.68,SE,135,9.9,-999.0,62,-99.99,,,0.02,Acu-Link.com,2013-09-10 01:07:00,
2013-09-09 19:22:00,75.6,60.7,29.68,South,180,10.4,-999.0,60,-99.99,,,0.02,Acu-Link.com,2013-09-10 01:22:00,
2013-09-09 19:37:00,75.9,59.6,29.69,SSE,157,9.9,-999.0,57,-99.99,,,0.02,Acu-Link.com,2013-09-10 01:37:00,
2013-09-09 20:07:00,76.1,58.2,29.70,South,180,8.9,-999.0,54,-99.99,,,0.02,Acu-Link.com,2013-09-10 02:07:00,
2013-09-09 20:23:00,76.3,57.9,29.72,SSE,157,5.8,-999.0,53,-99.99,,,0.02,Acu-Link.com,2013-09-10 02:23:00,
2013-09-09 20:38:00,76.3,57.9,29.71,SE,135,4.7,-999.0,53,-99.99,,,0.02,Acu-Link.com,2013-09-10 02:38:00,
2013-09-09 20:53:00,76.3,57.9,29.72,SE,135,7.3,-999.0,53,-99.99,,,0.02,Acu-Link.com,2013-09-10 02:53:00,
2013-09-09 21:08:00,76.3,57.9,29.73,South,180,5.3,-999.0,53,-99.99,,,0.02,Acu-Link.com,2013-09-10 03:08:00,
2013-09-09 21:23:00,76.3,58.4,29.73,SSE,157,6.8,-999.0,54,-99.99,,,0.02,Acu-Link.com,2013-09-10 03:23:00,
2013-09-09 21:38:00,76.1,58.2,29.73,SSE,157,7.3,-999.0,54,-99.99,,,0.02,Acu-Link.com,2013-09-10 03:38:00,
2013-09-09 21:53:00,75.9,58.6,29.74,ESE,112,7.3,-999.0,55,-99.99,,,0.02,Acu-Link.com,2013-09-10 03:53:00,
2013-09-09 22:08:00,75.7,59.4,29.73,SSE,157,9.4,-999.0,57,-99.99,,,0.02,Acu-Link.com,2013-09-10 04:08:00,
2013-09-09 22:24:00,75.6,59.8,29.74,SE,135,5.3,-999.0,58,-99.99,,,0.02,Acu-Link.com,2013-09-10 04:24:00,
2013-09-09 22:39:00,75.6,59.8,29.75,SSE,157,8.3,-999.0,58,-99.99,,,0.02,Acu-Link.com,2013-09-10 04:39:00,
2013-09-09 22:54:00,75.4,60.1,29.76,SE,135,7.8,-999.0,59,-99.99,,,0.02,Acu-Link.com,2013-09-10 04:54:00,
2013-09-09 23:09:00,75.0,60.2,29.74,SE,135,5.8,-999.0,60,-99.99,,,0.02,Acu-Link.com,2013-09-10 05:09:00,
2013-09-09 23:24:00,75.0,60.6,29.77,ESE,112,6.3,-999.0,61,-99.99,,,0.02,Acu-Link.com,2013-09-10 05:24:00,
2013-09-09 23:39:00,75.0,60.6,29.76,South,180,8.3,-999.0,61,-99.99,,,0.02,Acu-Link.com,2013-09-10 05:39:00,
2013-09-09 23:54:00,75.0,61.1,29.75,SSE,157,10.4,-999.0,62,-99.99,,,0.02,Acu-Link.com,2013-09-10 05:54:00,